Weather History for Keahole Point, HI

Change the Weather History Date:

Thursday, December 20, 2012

  Actual Average Record
Temperature  
Mean Temperature 75 °F -  
Max Temperature 81 °F 79 °F 86 °F (1989)
Min Temperature 69 °F 68 °F 63 °F (1983)
Cooling Degree Days 10    
Growing Degree Days 25 (Base 50)    
Moisture  
Dew Point 59 °F    
Average Humidity 57    
Maximum Humidity 66    
Minimum Humidity 49    
Precipitation  
Precipitation 0.00 in - - ()
Sea Level Pressure  
Sea Level Pressure 29.96 in    
Wind  
Wind Speed 6 mph (ESE)    
Max Wind Speed 10 mph    
Max Gust Speed -    
Visibility 10 miles    
Events      
Averages and records for this station are not official NWS values.
T = Trace of Precipitation, MM = Missing Value Source: NWS Daily Summary

Daily Weather History Graph

Daily Weather History Graph

Search for Another Location

Airport:

Trip Planner

Search our weather history database for the weather conditions in past years. The results will help you decide how hot, cold, wet, or windy it might be!

Date:

Astronomy

Dec. 20, 2012 Rise Set
Actual Time 6:53 AM HST 5:50 PM HST
Civil Twilight 6:29 AM HST 6:14 PM HST
Nautical Twilight 6:02 AM HST 6:41 PM HST
Astronomical Twilight 5:35 AM HST 7:09 PM HST
Moon 12:38 PM HST (12/20) 12:31 AM HST (12/20)
Length of Visible Light 11h 44m
Length of Day
10h 56m
First Quarter, 57% of the Moon is Illuminated
Dec 20
First Quarter
Dec 28
Full
Jan 4
Last Quarter
Jan 11
New
Jan 18
First Quarter

Hourly Weather History & Observations

Time (HST) Temp. Heat Index Dew Point Humidity Pressure Visibility Wind Dir Wind Speed Gust Speed Precip Events Conditions
12:53 AM 73.9 °F - 55.0 °F 52% 29.99 in 10.0 mi ESE 5.8 mph - N/A   Mostly Cloudy
1:53 AM 70.0 °F - 53.1 °F 55% 29.98 in 10.0 mi NE 4.6 mph - N/A   Clear
2:53 AM 71.1 °F - 51.1 °F 49% 29.96 in 10.0 mi NE 3.5 mph - N/A   Clear
3:53 AM 70.0 °F - 53.1 °F 55% 29.95 in 10.0 mi Calm Calm - N/A   Clear
4:53 AM 69.1 °F - 51.1 °F 53% 29.95 in 10.0 mi NNE 5.8 mph - N/A   Clear
5:53 AM 70.0 °F - 52.0 °F 53% 29.94 in 10.0 mi East 4.6 mph - N/A   Clear
6:53 AM 71.1 °F - 53.1 °F 53% 29.95 in 10.0 mi ESE 8.1 mph - N/A   Clear
7:53 AM 73.0 °F - 54.0 °F 51% 29.97 in 10.0 mi Calm Calm - N/A   Clear
8:53 AM 78.1 °F - 61.0 °F 56% 29.98 in 10.0 mi SE 4.6 mph - N/A   Clear
9:53 AM 79.0 °F - 63.0 °F 58% 29.98 in 10.0 mi WSW 5.8 mph - N/A   Clear
10:53 AM 81.0 °F 81.7 °F 61.0 °F 50% 29.97 in 10.0 mi SSW 6.9 mph - N/A   Clear
11:53 AM 81.0 °F 82.2 °F 63.0 °F 54% 29.95 in 10.0 mi South 10.4 mph - N/A   Clear
12:53 PM 80.1 °F 81.9 °F 64.9 °F 60% 29.92 in 10.0 mi SSW 9.2 mph - N/A   Clear
1:53 PM 80.1 °F 82.1 °F 66.0 °F 62% 29.91 in 10.0 mi SSW 10.4 mph - N/A   Mostly Cloudy
2:53 PM 80.1 °F 82.1 °F 66.0 °F 62% 29.90 in 10.0 mi SSW 9.2 mph - N/A   Scattered Clouds
3:53 PM 79.0 °F - 66.0 °F 64% 29.91 in 10.0 mi WSW 6.9 mph - N/A   Overcast
4:53 PM 78.1 °F - 66.0 °F 66% 29.93 in 10.0 mi Variable 3.5 mph - N/A   Overcast
5:53 PM 78.1 °F - 66.0 °F 66% 29.95 in 10.0 mi ENE 3.5 mph - N/A   Mostly Cloudy
6:53 PM 77.0 °F - 63.0 °F 62% 29.96 in 10.0 mi ESE 5.8 mph - N/A   Partly Cloudy
7:53 PM 75.9 °F - 60.1 °F 58% 29.98 in 10.0 mi North 8.1 mph - N/A   Clear
8:53 PM 75.0 °F - 60.1 °F 60% 29.99 in 10.0 mi SE 6.9 mph - N/A   Clear
9:53 PM 75.0 °F - 61.0 °F 62% 29.99 in 10.0 mi East 9.2 mph - N/A   Clear
10:53 PM 75.0 °F - 59.0 °F 57% 29.99 in 10.0 mi NE 8.1 mph - N/A   Clear
11:53 PM 73.0 °F - 59.0 °F 61% 29.99 in 10.0 mi East 3.5 mph - N/A   Partly Cloudy